Powrót do katalogu

STARLINK-36156

AktywnyŁącznośćVLEO
NORAD 67006·PAYLOAD·🇺🇸 United States

Wystrzelony Dec 10, 2025 z Vandenberg Space Force Base

Loading…

Następne Przeloty (najbliższe 24 godziny)

TLE

ŚwieżeSource: CelesTrak SupGP

Epoka: Sep 14, 2026, 21:34 UTC

1 67006C 25293D   26257.89909722 -.00044140  00000+0 -37001-2 0  2572
2 67006  70.0019 337.5436 0003473 270.1818 169.3131 14.98341457    14

Śledź STARLINK-36156 w czasie rzeczywistym z AllMySat

Download on the App Store